Regional Weather Roundup
Issued by NWS

Home | Current Version | Previous Version | Text Only | Print | Product List | Glossary On
Versions: 1 2 3 4 5 6 7 8 9 10 11 12 13 14 15 16 17 18 19 20 21 22 23 24 25 26 27 28 29 30 31 32 33 34 35 36 37 38 39 40 41 42 43 44 45 46 47 48 49 50
000
ASUS42 KTBW 010810
RWRFL
FLORIDA REGIONAL WEATHER ROUNDUP
NATIONAL WEATHER SERVICE TAMPA BAY RUSKIN FL
400 AM EDT FRI AUG 01 2014

NOTE: "FAIR" INDICATES FEW OR NO CLOUDS BELOW 12,000 FEET WITH NO
SIGNIFICANT WEATHER AND/OR OBSTRUCTIONS TO VISIBILITY.


FLZ001>010-012>015-112-114-115-010900-
PANHANDLE FLORIDA

CITY           SKY/WX    TMP DP  RH WIND       PRES   REMARKS
PENSACOLA      CLEAR     72  64  76 N7        29.96F
PENSACOLA NAS  CLEAR     69  65  86 CALM      29.95F
MILTON NAS     CLEAR     69  63  81 N5        29.97F
CRESTVIEW      CLEAR     66  64  93 CALM      29.98F
DUKE FIELD     FAIR      67  66  99 N2        29.97S
VALPARAISO     CLEAR     71  65  81 N2        29.96S
MARY ESTHER    CLEAR     69  63  80 N6        29.95S
TRI COUNTY     FAIR      65  65 100 CALM      29.97S
PANAMA CITY    FAIR      72  65  78 CALM      29.94F
TYNDALL AFB    MOCLDY    72  67  85 CALM      29.96S
APALACHICOLA   PTCLDY    67  65  93 CALM      29.95S

STATION/POSITION SKY/WX   TEMP    WIND        PRES    WAVE   SWELL
                          AIR SEA DIR/SP/G            HT/PER HT/PER
                          (F)     (DEG/KT/KT) (MB)    (FT/S) (FT/S)
30.1N   87.6W              79 83  350/ 10/ 12 1014.5F   1
29.2N   88.2W              81 84  350/  2/  4 1014.7
28.8N   86.0W              81 85   CALM  /  2 1014.6F   1
PANAMA CITY BEAC           74 81  360/  5/  7 1014.1F
CAPE SAN BLAS    NOT AVBL
TOWER C                    80     260/  4/  4 1014.3F
28.5N   84.5W              82 85   CALM  /  2 1014.3F   1

$$
FLZ011-016>038-118-127-128-134-139-239-010900-
NORTH FLORIDA

CITY           SKY/WX    TMP DP  RH WIND       PRES   REMARKS
MARIANNA       PTCLDY    71  68  90 CALM      29.95F
TALLAHASSEE    PTCLDY    71  65  81 CALM      29.95F
PERRY          PTCLDY    68  66  94 CALM      29.95F
CROSS CITY       N/A     71  67  87 CALM      29.94S
GAINESVILLE    MOCLDY    74  73  97 CALM      29.94F
MAYPORT NAS    CLEAR     80  75  84 S3        29.94S
JACKSONVILLE   PTCLDY    75  74  96 E3        29.93F
JAX NAS        PTCLDY    84  75  74 SE7       29.94F
JAX CRAIG      CLEAR     78  76  93 CALM      29.94F
JAX CECIL      CLEAR     73  73 100 CALM      29.94S FOG
FERNANDINA BEA FAIR      81  73  78 S3        29.93S
ST AUGUSTINE   CLEAR     79  74  84 CALM      29.94F

STATION/POSITION SKY/WX   TEMP    WIND        PRES    WAVE   SWELL
                          AIR SEA DIR/SP/G            HT/PER HT/PER
                          (F)     (DEG/KT/KT) (MB)    (FT/S) (FT/S)
SHELL POINT                75     320/  3/  4   N/A
KEATON BEACH               74      50/  1/  2 1014.0F
CEDAR KEY                  78      10/  4/  5 1014.5F
FERNANDINA                 82 87  140/  2/  5 1013.3S
30.7N   81.3W                 85                N/A     3/ 4
MAYPORT                    81 86  190/  1/  4   N/A
31.4N   80.9W              83 85  150/ 10/ 14 1014.2F   2/ 4   2/ 5
ST AUGUSTINE               80     190/  5/  6 1014.3F

$$
FLZ040-043>046-052-053-057-058-063-144-010900-
INTERIOR CENTRAL FLORIDA

CITY           SKY/WX    TMP DP  RH WIND       PRES   REMARKS
OCALA          CLEAR     72  61  68 CALM      29.95S
LEESBURG       CLEAR     77  69  76 W3        29.95F
SANFORD        CLEAR     79  77  94 SE7       29.94F
ORLANDO EXEC   CLEAR     79  72  79 SE5       29.95F
ORLANDO INTL   CLEAR     75  71  87 S3        29.95F
WINTER HAVEN   CLEAR     78  69  73 CALM      29.96F
LAKELAND       CLEAR     73  70  88 CALM      29.95F
BARTOW         FAIR      73  73 100 CALM      29.96F
OKEECHOBEE       N/A     73  73 100 MISG      29.96F

$$
FLZ041-047-054-059-064-141-147-010900-
EAST CENTRAL FLORIDA

CITY           SKY/WX    TMP DP  RH WIND       PRES   REMARKS
DAYTONA BEACH  PTCLDY    78  75  90 CALM      29.95F
DELAND         SUNNY     75  73  94 CALM      29.96S
JFK SPACE CTR  CLEAR     79  79 100 S7        29.95F
CAPE CANAVERAL CLEAR     79  74  85 S6        29.94F
PATRICK AFB    CLEAR     79  74  84 S8        29.95F
MELBOURNE      CLEAR     78  74  87 SE7       29.95F
VERO BEACH     CLEAR     75  73  93 S5        29.95F
FT PIERCE      CLEAR     74  71  91 CALM      29.95F FOG
STUART         CLEAR     75  73  94 CALM      29.97S

STATION/POSITION SKY/WX   TEMP    WIND        PRES    WAVE   SWELL
                          AIR SEA DIR/SP/G            HT/PER HT/PER
                          (F)     (DEG/KT/KT) (MB)    (FT/S) (FT/S)
28.5N   80.2W              83 83  180/ 14/ 16 1014.7F
28.9N   78.5W              83 84  150/ 14/ 16 1015.4F   3/ 4   2/ 7
TRIDENT PIER               81 85  170/  7/ 10 1013.7F
28.4N   80.5W                 84                N/A     2/ 4
27.6N   80.2W                 82                N/A     2/ 3

$$
FLZ050-056-061-142-242-148-248-149-249-151-251-155-255-
160-260-010900-
WEST CENTRAL FLORIDA

CITY           SKY/WX    TMP DP  RH WIND       PRES   REMARKS
CRYSTAL RIVER  FAIR      70  66  88 CALM      29.94F
INVERNESS      FAIR      70  64  83 CALM      29.95F
BROOKSVILLE    CLEAR     72  70  93 CALM      29.96F
ZEPHYRHILLS    FAIR      70  70 100 CALM      29.96F
CLEARWATER     PTCLDY    77  70  79 CALM      29.95S
TAMPA INTL     MOCLDY    80  68  66 CALM      29.95F
TAMPA EXEC     CLOUDY    75  72  88 CALM      29.96S
MACDILL AFB    PTCLDY    75  71  87 E1        29.95S
ST PETERSBURG  CLEAR     83  70  64 CALM      29.93F
SARASOTA       PTCLDY    77  70  79 CALM      29.93F
VENICE         FAIR      77  70  78 CALM      29.95S

STATION/POSITION SKY/WX   TEMP    WIND        PRES    WAVE   SWELL
                          AIR SEA DIR/SP/G            HT/PER HT/PER
                          (F)     (DEG/KT/KT) (MB)    (FT/S) (FT/S)
CEDAR KEY                  78      10/  4/  5 1014.5F
28.5N   84.5W              82 85   CALM  /  2 1014.3F   1
27.3N   84.3W                 87                N/A     1
CLEARWATER BEACH           82 88   90/  3/  3 1013.8S
MIDDLE TAMPA BAY           82     160/  2/  4 1014.2S
VENICE                     80 89   30/  3/  4 1013.8F

$$
FLZ066-069-070-075>078-162-262-165-265-010900-
SOUTHWEST FLORIDA AND KEYS

CITY           SKY/WX    TMP DP  RH WIND       PRES   REMARKS
PUNTA GORDA    PTCLDY    77  73  87 CALM      29.96S
FT MYERS       CLEAR     78  76  93 SE5       29.94F
SOUTHWEST INTL CLEAR     77  73  87 S7        29.94F
NAPLES         PTCLDY    78  74  87 E3        29.94F
MARCO ISLAND   SUNNY     77  73  88 E3        29.94F
MARATHON       PTCLDY    84  76  76 VRB6      29.93F
KEY WEST NAS   PTCLDY    85  75  72 SE8       29.93F
KEY WEST INTL  PTCLDY    85  74  69 SE7       29.94F

STATION/POSITION SKY/WX   TEMP    WIND        PRES    WAVE   SWELL
                          AIR SEA DIR/SP/G            HT/PER HT/PER
                          (F)     (DEG/KT/KT) (MB)    (FT/S) (FT/S)
VENICE                     80 89   30/  3/  4 1013.8F
NAPLES                     79 92  120/  4/  6 1014.2F
DRY TORTUGAS               83     140/ 14/ 16 1013.5F
NW FL BAY                  84     100/  8/ 10 1014.8F
SAND KEY                   84     130/  9/ 11 1013.7F
SOMBRERO KEY               85     110/ 10/ 12 1014.5F
LONG KEY                   84 90  100/  8/ 10 1015.0F
MOLASSES REEF              84 87  120/  7/  8 1014.0F

$$
FLZ067-068-071>074-168-172>174-010900-
SOUTHEAST FLORIDA

CITY           SKY/WX    TMP DP  RH WIND       PRES   REMARKS
W PALM BEACH   PTCLDY    80  76  87 SE5       29.94F
FT LAUDER-EXEC CLEAR     78  76  93 CALM      29.95F
FT LAUDERDALE  PTCLDY    81  75  82 CALM      29.94F
POMPANO BEACH  CLEAR    N/A N/A N/A MISG      29.95F
PEMBROKE PINES PTCLDY    78  75  90 CALM      29.96F
OPA LOCKA      CLEAR     77  74  90 CALM      29.95F
MIAMI          MOCLDY    79  75  87 CALM      29.95F
WEST KENDALL   PTCLDY    79  75  87 E5        29.95F
HOMESTEAD      PTCLDY    78  76  92 E5        29.95F

STATION/POSITION SKY/WX   TEMP    WIND        PRES    WAVE   SWELL
                          AIR SEA DIR/SP/G            HT/PER HT/PER
                          (F)     (DEG/KT/KT) (MB)    (FT/S) (FT/S)
PORT EVERGLADES            84     130/  6/  9 1014.1
VIRGINIA KEY               83 89  140/  3/  4   N/A
LAKE WORTH                 83 83  160/ 10/ 11 1014.0S
FOWEY ROCKS                85 86  110/  9/ 11 1014.3F
SETTLEMENT POINT           82     130/  6/  7 1015.3F

$$




USA.gov is the U.S. government's official web portal to all federal, state and local government web resources and services.